Regional Weather Roundup
Issued by NWS

Home | Current Version | Previous Version | Graphics & Text | Print | Product List | Glossary On
Versions: 1 2 3 4 5 6 7 8 9 10 11 12 13 14 15 16 17 18 19 20 21 22 23 24 25 26 27 28
000
ASUS45 KSLC 141810
RWRUT

UTAH REGIONAL WEATHER ROUNDUP
NATIONAL WEATHER SERVICE SALT LAKE CITY UT
1100 AM MST THU DEC 14 2017

UTZ001>011-023>025-141900-

NORTHERN UTAH

CITY           SKY/WX    TMP DP  RH WIND       PRES   REMARKS
BRIGHAM CITY   MOSUNNY   30  28  91 CALM      30.48R
DUGWAY         SUNNY     30  21  68 VRB1      30.47S
6HR MIN TEMP:   9; 6HR MAX TEMP:  30;

HILL AFB       NOT AVBL
LOGAN          SUNNY     27  20  75 NW5       30.49R WCI  22
OGDEN          SUNNY     32  27  81 S5        30.45R WCI  27
SALT LAKE CITY MOSUNNY   33  27  78 SE5       30.46R WCI  29
TOOELE VALLEY  SUNNY     34  30  86 CALM      30.47R
WENDOVER       SUNNY     32  22  66 SE3       30.47S
HEBER CITY       N/A     34  23  64 CALM      30.38S
WEST JORDAN    SUNNY     32  28  88 CALM      30.45F

$$

UTZ011>015-024>027-141900-

CENTRAL/NORTHEAST UTAH

CITY           SKY/WX    TMP DP  RH WIND       PRES   REMARKS
PROVO AIRPORT  CLOUDY    32  26  78 W7        30.47R WCI  26
MOAB/CANYONLAN SUNNY     46  20  35 E17       30.29S
DELTA          SUNNY     30  19  64 CALM      30.46R
PRICE          SUNNY     42  22  44 NE9       30.31R
RICHFIELD      SUNNY     34  23  64 N5        30.42S WCI  30
ROOSEVELT      SUNNY     37  19  48 SW7       30.40S WCI  32
VERNAL         SUNNY     40  20  44 S3        30.37R

$$

UTZ013>016-019>022-027-141900-

SOUTHERN UTAH

CITY           SKY/WX    TMP DP  RH WIND       PRES   REMARKS
BRYCE CANYON     N/A    N/A N/A N/A MISG      30.32R
CEDAR CITY     SUNNY     36  19  50 N13       30.36R WCI  27
MILFORD        SUNNY     34  21  59 N12       30.42S WCI  25
ST GEORGE      CLEAR     52  23  32 S12       30.29R
HANKSVILLE     SUNNY     45  21  39 NW3       30.35S
KANAB          SUNNY     52  18  25 N9        30.28S
BLANDING         N/A     46  14  26 N20G33    30.25R

$$

REGIONAL REPORTS     COLORADO/ARIZONA

CITY           SKY/WX    TMP DP  RH WIND       PRES   REMARKS
CRAIG, CO      SUNNY     27  20  75 SW12      30.33S WCI  17
GRAND JUNCTION SUNNY     43  21  41 N9        30.30S
RIFLE, CO      SUNNY     40  19  43 NW12      30.30S WCI  33
MONTROSE, CO   CLOUDY    36  21  54 N8        30.30R WCI  30
CORTEZ, CO     SUNNY     47  22  37 N15G21    30.14S
COLORADO CITY    N/A     46  19  34 NW13G25   30.28F
PAGE, AZ       SUNNY     52  21  29 N16       30.24R
GRAND CANYON   SUNNY     43  18  36 NE20G35   30.21F
KINGMAN, AZ    SUNNY     56  20  24 N23G30    30.17R
FLAGSTAFF, AZ  SUNNY     41  18  39 NE24G36   30.15F

$$

REGIONAL REPORTS    NEVADA/IDAHO/WYOMING

CITY           SKY/WX    TMP DP  RH WIND       PRES   REMARKS
LAS VEGAS, NV  SUNNY     62  21  20 N22       30.25R
ELY, NY        SUNNY     35  22  58 N13       30.41R WCI  26
ELKO, NV       SUNNY     28  21  75 CALM      30.46R
POCATELLO, ID  FOG       22  20  92 CALM      30.53S VSB 1/2
BURLEY, ID     CLOUDY    23  21  92 E6        30.51S FOG     WCI  16
FORT BRIDGER,  CLEAR     32  23  69 W17G24    30.37S WCI  21
EVANSTON, WY   PTSUNNY   30  22  72 VRB6      30.37R WCI  24
ROCK SPRINGS,  CLOUDY    28  22  78 W12       30.33S WCI  18

$$




USA.gov is the U.S. government's official web portal to all federal, state and local government web resources and services.